Probability
3 7 11 12 12 13 14 16 19 20 19 17 15 14 14 14 14 13 11 12 11 8 5 3 2 1 1 3 4 4 3 3 3 2 1 0 0 0 0 0 1 5 7
5 7 10 12 13 14 14 15 18 19 19 17 15 14 13 13 13 13 12 12 11 9 6 4 2 1 1 2 4 4 3 2 1 1 1 0 0 0 1 1 1 4 6
10 8 9 12 15 15 13 12 14 16 17 16 15 13 12 11 12 12 13 13 12 10 7 5 3 2 2 1 2 3 2 2 1 1 1 1 0 1 3 4 2 3 4
12 9 9 14 17 15 11 9 10 13 13 13 13 12 11 10 11 12 12 13 12 11 8 6 4 3 2 1 1 1 1 1 2 2 2 1 1 3 6 6 4 4 5
12 10 11 16 17 14 9 7 8 9 10 11 11 10 10 10 10 11 11 11 12 11 8 6 5 4 3 1 0 0 0 0 2 2 2 1 2 4 7 8 8 8 8
12 12 15 18 17 12 9 8 9 9 10 10 9 9 9 10 10 10 10 10 10 10 8 7 6 5 3 1 0 0 0 1 2 3 2 2 2 4 7 10 13 13 13
12 12 16 20 17 13 12 11 11 11 12 11 9 7 8 9 9 10 10 10 10 9 8 7 6 5 3 1 1 1 1 1 2 3 2 1 2 4 8 12 16 17 16
13 14 16 17 16 14 13 13 13 12 12 10 9 8 8 9 10 11 12 12 11 10 9 7 6 5 3 2 1 2 2 1 2 2 1 0 1 4 9 13 16 16 16
15 15 15 13 12 13 14 14 11 10 9 9 9 10 10 10 10 11 13 14 13 12 10 7 5 4 3 2 2 3 3 3 3 3 2 1 1 3 7 11 14 15 13
16 15 14 13 12 12 13 12 9 7 7 8 10 11 11 10 9 9 12 14 14 12 10 7 4 2 1 1 2 2 2 3 3 3 3 3 3 4 6 8 11 11 10
16 15 14 14 14 13 12 10 8 6 6 7 9 10 10 9 7 6 8 11 11 10 8 6 3 1 0 1 1 1 1 1 2 3 3 4 6 6 6 7 8 8 8
18 16 15 15 15 14 11 9 8 6 6 6 6 7 8 8 6 5 6 8 8 7 5 4 2 1 1 1 0 0 0 1 2 2 2 5 8 9 7 7 8 7 7
17 16 15 15 14 12 11 9 8 6 5 4 3 3 5 6 6 5 5 5 5 3 2 2 2 1 2 1 1 0 0 0 1 2 3 6 10 11 9 7 7 6 6
17 15 14 12 10 10 10 9 7 6 4 3 1 1 2 4 4 4 3 3 3 3 3 2 2 2 3 2 1 0 0 0 0 1 3 7 10 10 9 6 4 4 5
17 15 11 9 8 8 8 8 6 5 4 3 1 0 1 2 2 1 1 2 3 4 3 3 3 3 3 2 1 0 0 0 0 1 3 7 8 8 8 6 4 4 4
17 14 10 8 7 7 6 5 4 4 3 3 2 1 1 2 2 1 1 3 4 3 2 2 2 3 3 2 1 0 0 0 0 1 2 5 7 8 7 6 6 5 4
16 14 11 8 7 5 4 3 3 3 3 3 3 3 3 3 4 3 3 4 3 1 1 1 1 3 3 2 1 0 0 0 0 0 1 3 6 8 7 7 7 6 4
16 15 13 10 7 5 4 3 2 3 3 3 3 3 3 3 4 3 3 3 1 1 1 1 1 2 3 2 1 0 0 0 0 0 0 1 3 5 6 6 7 6 5
19 18 16 12 8 6 6 4 3 3 3 3 3 4 3 3 3 3 2 1 0 0 1 1 0 1 2 2 1 0 0 1 0 0 0 0 1 3 3 4 5 5 4
23 22 19 15 10 8 8 6 4 3 2 3 3 4 4 3 3 2 1 0 0 0 0 0 0 0 1 1 0 0 0 0 0 0 0 0 0 1 1 2 3 4 4
23 23 23 19 14 11 9 7 4 1 1 1 3 4 4 4 2 1 0 0 0 0 0 0 0 0 0 0 0 0 0 0 0 0 0 0 0 0 0 1 3 3 3
21 22 23 21 17 14 12 8 4 1 0 1 3 5 5 4 2 0 0 0 0 0 0 0 0 0 0 0 0 0 0 0 0 0 0 0 0 0 0 1 2 3 3
20 20 20 18 17 16 15 11 6 2 0 1 3 6 6 4 1 0 0 0 0 0 0 0 0 0 0 0 0 0 0 0 0 0 0 0 0 0 0 0 1 2 2
19 18 16 15 14 16 16 13 9 4 0 1 4 7 6 3 1 0 0 0 0 0 0 0 0 1 1 0 0 0 0 0 0 0 0 0 0 1 0 0 0 1 1
19 17 15 13 13 14 15 14 10 6 2 2 4 6 5 3 2 2 1 1 1 1 0 0 0 1 2 1 0 0 0 0 0 0 0 0 0 0 0 1 1 0 0
19 17 14 12 13 14 13 13 10 6 3 3 5 6 5 3 4 4 3 2 2 2 1 0 1 2 2 1 0 0 0 0 0 0 0 0 0 0 1 2 2 1 0
Wind_Speed
6 7 13 13 13 13 14 13 13 13 13 13 13 14 14 14 13 13 13 12 12 12 11 11 11 10 10 10 10 11 11 11 10 11 12 13 13 13 12 13 12 9 12
11 9 14 14 14 13 14 13 14 13 13 13 13 13 13 13 13 12 12 11 11 11 11 11 10 10 9 10 10 10 10 10 10 10 11 11 12 12 12 12 12 8 13
12 9 12 15 14 14 14 13 13 13 13 13 13 13 12 12 12 11 11 10 10 10 10 10 9 9 9 8 8 9 9 9 9 9 8 5 7 10 11 11 12 12 12
13 9 11 15 14 14 14 14 13 13 13 13 13 12 12 11 11 11 10 10 10 9 9 9 9 8 8 8 8 8 8 8 8 7 4 4 5 9 10 11 12 12 12
11 8 11 16 14 14 15 14 14 13 13 13 12 12 11 10 10 10 10 9 9 8 8 8 8 7 7 7 7 7 7 7 7 6 4 4 3 7 9 11 12 12 11
10 8 11 16 15 14 14 14 13 13 13 12 12 11 10 10 9 9 9 9 9 8 8 7 7 7 6 6 6 6 6 7 6 4 4 4 3 8 9 11 12 12 11
10 7 10 15 15 15 14 13 13 12 12 11 11 10 10 9 9 9 9 8 8 8 7 7 6 6 6 6 5 5 6 7 5 4 3 4 5 9 10 11 12 12 12
12 8 8 14 15 15 14 13 12 11 11 10 10 10 9 8 8 8 8 8 7 7 6 6 5 5 5 5 5 5 5 5 4 4 3 3 7 9 10 11 12 12 11
10 9 7 7 10 14 14 13 12 11 10 9 9 9 9 8 8 8 7 7 6 6 6 5 5 5 5 5 5 4 4 5 3 2 4 3 6 9 9 10 11 11 11
8 8 7 6 6 6 8 12 12 11 10 9 9 9 8 8 7 7 6 6 6 6 5 5 5 4 4 4 4 4 4 4 3 2 2 4 8 8 9 10 11 11 11
7 6 6 6 6 6 6 9 9 9 8 7 6 8 7 3 3 4 5 6 6 5 5 4 4 4 3 3 3 3 2 1 2 2 2 6 9 9 9 10 11 11 11
8 6 5 7 7 6 6 5 4 4 4 3 2 3 2 2 2 3 4 5 5 4 4 4 4 4 2 1 2 2 1 2 2 2 3 8 9 9 10 10 11 11 11
10 8 7 7 7 7 5 5 3 2 2 2 2 3 2 2 1 1 1 1 1 2 1 1 1 1 1 1 1 1 1 1 1 2 3 8 8 8 9 10 10 10 10
10 9 7 7 7 6 5 4 4 3 2 2 2 3 3 2 2 2 1 1 1 1 1 1 1 1 1 1 2 2 2 2 2 1 3 7 8 8 9 10 10 10 9
9 9 8 8 7 6 5 4 4 3 3 3 3 3 3 3 3 2 1 1 1 1 2 1 1 1 1 1 2 2 2 2 3 2 2 6 8 8 9 10 10 10 10
11 9 8 8 7 6 5 4 4 4 3 3 2 3 3 3 3 3 2 1 1 1 2 2 1 1 1 1 1 2 2 2 3 3 2 4 8 9 9 10 9 10 10
11 10 9 8 7 7 6 5 4 3 3 3 3 3 3 3 3 3 2 2 1 1 1 2 2 1 1 1 1 1 1 1 2 2 2 2 3 7 9 9 9 9 9
10 10 9 9 8 7 6 4 3 3 3 3 3 3 3 3 3 3 2 1 1 1 2 2 2 1 1 1 0 1 1 1 2 2 2 2 2 3 6 9 9 9 9
11 10 9 8 8 7 5 4 4 3 3 3 2 3 3 3 3 3 2 1 1 2 2 2 2 2 1 1 1 1 1 1 1 2 2 3 3 3 3 6 8 9 9
9 9 9 8 7 6 5 4 3 3 2 2 2 3 3 3 3 3 2 2 2 2 2 2 2 1 1 1 0 1 1 1 1 1 2 2 2 3 3 3 3 5 9
8 9 9 8 7 6 4 4 4 3 3 2 2 3 4 3 3 3 2 2 3 3 3 3 2 2 1 1 2 2 2 2 1 1 1 2 2 2 3 3 2 2 3
9 8 8 8 8 7 5 4 3 3 3 3 2 2 3 3 3 3 3 3 3 3 2 2 2 2 1 2 2 2 2 3 2 1 1 2 2 1 2 3 3 3 2
9 9 8 7 7 6 6 4 3 2 2 1 1 2 2 3 3 3 3 3 3 3 3 3 3 4 2 1 2 3 3 3 2 2 1 1 2 2 2 3 4 4 4
10 9 8 7 6 6 6 5 6 4 3 3 3 2 2 3 3 3 3 3 3 3 3 3 4 3 4 2 1 1 2 4 2 1 2 2 2 2 3 3 3 4 4
10 9 8 7 6 6 6 6 6 4 3 2 2 2 2 2 2 3 3 3 3 3 3 3 3 3 3 3 3 2 1 1 2 2 2 2 2 2 2 3 2 3 4
8 7 7 7 6 6 6 6 6 5 4 3 2 2 2 1 2 3 3 3 3 3 3 4 4 4 4 4 3 3 3 2 3 3 2 2 2 3 3 2 2 3 3
Wind_Direction
157 158 144 136 130 123 118 114 113 109 108 106 104 104 105 106 107 109 110 112 114 114 114 113 118 123 127 127 127 125 126 129 130 138 139 136 135 138 137 136 129 125 128
153 155 144 137 132 127 123 119 118 114 113 111 108 107 107 108 108 110 111 112 113 115 116 117 117 117 122 130 131 129 128 132 132 136 139 139 139 138 136 134 132 131 133
144 149 144 139 135 130 127 124 122 119 117 114 112 110 110 110 110 111 111 111 111 112 115 117 118 119 120 126 132 127 126 130 129 128 126 124 136 140 137 137 138 135 136
143 147 146 141 137 134 132 129 125 123 121 118 116 115 114 115 114 113 113 114 114 113 114 117 120 119 119 122 124 124 121 122 123 124 116 118 131 141 145 144 142 143 143
140 145 147 141 138 135 135 133 129 127 125 124 123 122 120 119 119 120 121 122 121 119 118 119 121 122 122 122 125 123 118 118 117 116 111 117 127 142 144 144 147 149 148
140 144 147 143 140 137 134 133 133 133 131 130 129 129 129 127 127 126 126 126 125 122 121 123 124 124 125 123 124 125 123 123 115 112 120 130 139 150 149 149 149 151 151
143 145 146 145 142 140 139 139 138 137 136 137 136 135 134 132 131 131 130 131 130 128 125 125 127 130 127 126 122 119 121 126 117 122 132 140 146 147 153 155 152 150 150
144 144 145 146 145 143 143 143 145 143 141 142 142 140 140 138 138 137 138 138 138 135 133 133 131 134 134 131 125 120 126 133 124 141 145 146 152 156 157 152 148 149 150
139 139 141 147 147 148 148 148 149 148 148 151 150 147 147 146 148 147 146 146 146 145 146 147 143 143 140 139 137 131 133 135 123 141 154 147 155 159 160 155 153 155 153
137 139 140 145 146 147 149 152 150 151 153 154 155 154 155 155 156 156 155 158 161 162 160 159 157 155 151 152 152 147 142 135 132 145 157 164 164 163 167 166 163 162 161
133 137 141 147 149 148 149 154 152 153 157 157 158 160 156 151 156 160 163 164 170 174 175 174 175 166 168 171 171 165 150 133 143 157 168 170 168 169 171 173 170 169 167
149 156 158 157 153 149 152 139 145 150 151 152 159 157 149 145 163 159 158 162 166 176 183 186 185 179 171 154 182 188 140 157 164 166 172 170 171 172 174 174 172 170 169
158 159 163 159 153 151 144 141 146 143 144 142 149 153 152 151 152 130 119 151 148 160 159 184 174 155 167 165 168 176 176 171 173 173 177 172 170 171 170 170 174 173 174
157 158 155 154 151 151 140 144 147 146 144 143 151 149 147 144 137 136 135 144 135 134 157 162 162 180 191 177 168 164 163 160 171 173 181 177 176 172 173 172 175 174 177
155 155 157 154 151 148 143 151 149 153 156 156 153 153 144 142 147 148 147 148 147 133 145 156 172 178 179 161 160 161 174 170 178 183 183 186 180 178 178 178 179 177 182
160 159 158 153 150 147 149 151 154 160 155 149 150 150 143 145 153 151 148 143 137 146 158 156 161 153 168 138 134 151 166 160 178 183 188 195 191 187 184 182 185 185 185
160 157 158 158 151 152 155 153 151 153 144 146 151 146 146 145 148 149 150 147 160 143 122 112 99 92 98 104 120 163 172 173 186 191 185 193 197 193 185 188 191 191 188
154 155 161 158 153 155 153 150 144 143 144 155 154 153 153 149 144 140 142 162 164 121 115 126 114 103 80 88 123 226 214 206 200 192 183 190 190 192 192 193 192 195 195
160 157 157 154 156 154 148 145 134 135 149 157 155 155 157 152 146 138 144 153 132 111 118 138 121 138 141 143 200 229 242 214 209 182 176 192 189 185 184 193 198 203 205
158 154 154 154 154 147 137 132 130 130 155 158 159 166 165 163 152 140 146 147 137 126 129 129 131 134 151 165 183 358 299 263 220 181 186 185 188 188 182 186 193 210 213
157 156 158 155 156 147 148 153 154 162 170 171 178 170 168 166 159 156 161 157 156 156 169 162 144 136 143 112 76 10 343 334 285 220 184 177 193 193 180 184 187 201 214
161 160 159 160 160 161 162 164 165 161 170 177 184 177 175 170 168 169 175 178 174 167 166 165 153 139 163 137 128 96 1 344 333 284 210 188 198 192 196 204 197 198 203
161 162 162 168 165 167 156 138 122 103 89 107 167 189 195 183 179 177 180 179 178 172 180 184 170 160 176 196 160 151 156 217 294 318 291 231 207 206 217 213 209 208 207
169 162 160 167 167 166 155 150 152 158 169 188 185 192 200 191 186 183 184 178 181 181 185 193 181 171 165 184 209 188 175 162 157 284 317 301 259 234 232 230 218 216 211
167 165 166 165 167 163 157 157 157 162 175 167 162 171 193 207 197 188 187 182 185 188 194 193 181 177 175 181 185 177 156 129 143 156 252 294 301 271 250 237 232 222 216
164 163 160 158 165 162 157 157 163 165 162 157 166 178 197 214 217 208 195 190 193 191 195 196 190 185 188 188 187 177 169 170 181 172 200 242 261 272 264 244 230 226 222